When you browse on this site, cookies collect data to enhance your experience and personalize the content and advertising you see.
Visit our Privacy Policy to learn more. By continuing to use the site, you agree to this use of cookies and data.
  • In Hungary
  • List of Countries
  • For 7 days
  • Water Temperature
  • Satellite Maps
  • Weather Map
  • News
  • Weather Widgets
  • user-avatar
    Login

    Hourly Weather Rustawi

    Today, 18 January, Friday

    Time Temperature Precipitation Wind Pressure Humidity
    00:00 -1°C° 0 mm 4 mps 726 mmHg 65%
    01:00 -1°C° 0 mm 4 mps 726 mmHg 66%
    02:00 -1°C° 0 mm 3 mps 727 mmHg 67%
    03:00 -1°C° 0 mm 3 mps 727 mmHg 68%
    04:00 -1°C° 0 mm 3 mps 727 mmHg 68%
    05:00 -1°C° 0 mm 3 mps 728 mmHg 68%
    06:00 -1°C° 0 mm 3 mps 728 mmHg 69%
    07:00 -1°C° 0 mm 3 mps 729 mmHg 66%
    08:00 0°C° 0 mm 3 mps 729 mmHg 62%
    09:00 +1°C° 0 mm 3 mps 729 mmHg 59%
    10:00 +1°C° 0 mm 4 mps 729 mmHg 54%
    11:00 +4°C° 0 mm 4 mps 729 mmHg 50%
    12:00 +5°C° 0 mm 4 mps 729 mmHg 45%
    13:00 +5°C° 0 mm 4 mps 728 mmHg 45%
    14:00 +6°C° 0 mm 4 mps 728 mmHg 44%
    15:00 +6°C° 0 mm 4 mps 728 mmHg 43%
    16:00 +5°C° 0 mm 3 mps 729 mmHg 50%
    17:00 +4°C° 0 mm 2 mps 729 mmHg 56%
    18:00 +3°C° 0 mm 2 mps 730 mmHg 62%
    19:00 +2°C° 0 mm 2 mps 730 mmHg 65%
    20:00 +2°C° 0 mm 2 mps 730 mmHg 67%
    21:00 +2°C° 0 mm 2 mps 731 mmHg 69%
    22:00 +2°C° 0 mm 1 mps 731 mmHg 69%
    23:00 +2°C° 0 mm 1 mps 731 mmHg 69%

    Tomorrow, 19 January, Saturday

    Time Temperature Precipitation Wind Pressure Humidity
    00:00 +2°C° 0 mm 1 mps 731 mmHg 68%
    01:00 +2°C° 0 mm 1 mps 731 mmHg 68%
    02:00 +1°C° 0 mm 1 mps 730 mmHg 67%
    03:00 +1°C° 0 mm 1 mps 730 mmHg 66%
    04:00 +1°C° 0 mm 1 mps 730 mmHg 65%
    05:00 +1°C° 0 mm 1 mps 730 mmHg 63%
    06:00 +1°C° 0 mm 1 mps 730 mmHg 62%
    07:00 +2°C° 0 mm 1 mps 730 mmHg 58%
    08:00 +2°C° 0 mm 1 mps 730 mmHg 53%
    09:00 +3°C° 0 mm 1 mps 730 mmHg 48%
    10:00 +5°C° 0 mm 1 mps 729 mmHg 43%
    11:00 +6°C° 0 mm 1 mps 729 mmHg 37%
    12:00 +8°C° 0 mm 1 mps 728 mmHg 31%
    13:00 +9°C° 0 mm 1 mps 728 mmHg 30%
    14:00 +9°C° 0 mm 1 mps 728 mmHg 29%
    15:00 +10°C° 0 mm 1 mps 727 mmHg 28%
    16:00 +8°C° 0 mm 1 mps 728 mmHg 32%
    17:00 +7°C° 0 mm 1 mps 728 mmHg 36%
    18:00 +5°C° 0 mm 1 mps 729 mmHg 40%
    19:00 +4°C° 0 mm 2 mps 729 mmHg 43%
    20:00 +3°C° 0 mm 2 mps 729 mmHg 45%
    21:00 +2°C° 0 mm 2 mps 729 mmHg 48%
    22:00 +2°C° 0 mm 2 mps 729 mmHg 49%
    23:00 +2°C° 0 mm 2 mps 730 mmHg 50%

    Day after tomorrow, 20 January, Sunday

    Time Temperature Precipitation Wind Pressure Humidity
    00:00 +1°C° 0 mm 2 mps 730 mmHg 51%
    01:00 +1°C° 0 mm 2 mps 730 mmHg 51%
    02:00 +1°C° 0 mm 2 mps 730 mmHg 51%
    03:00 +1°C° 0 mm 2 mps 730 mmHg 51%
    04:00 +1°C° 0 mm 2 mps 730 mmHg 50%
    05:00 +1°C° 0 mm 2 mps 730 mmHg 49%
    06:00 +2°C° 0 mm 1 mps 730 mmHg 48%
    07:00 +3°C° 0 mm 1 mps 730 mmHg 46%
    08:00 +4°C° 0 mm 1 mps 730 mmHg 44%
    09:00 +4°C° 0 mm 1 mps 731 mmHg 42%
    10:00 +6°C° 0 mm 1 mps 731 mmHg 37%
    11:00 +7°C° 0 mm 1 mps 730 mmHg 32%
    12:00 +8°C° 0 mm 1 mps 730 mmHg 26%
    13:00 +9°C° 0 mm 1 mps 730 mmHg 26%
    14:00 +9°C° 0 mm 1 mps 730 mmHg 25%
    15:00 +9°C° 0 mm 1 mps 729 mmHg 24%
    16:00 +8°C° 0 mm 1 mps 730 mmHg 27%
    17:00 +6°C° 0 mm 0 mps 730 mmHg 30%
    18:00 +4°C° 0 mm 0 mps 731 mmHg 33%
    19:00 +4°C° 0 mm 0 mps 731 mmHg 34%
    20:00 +4°C° 0 mm 1 mps 731 mmHg 36%
    21:00 +4°C° 0 mm 1 mps 731 mmHg 38%
    22:00 +4°C° 0 mm 1 mps 731 mmHg 39%
    23:00 +3°C° 0 mm 1 mps 731 mmHg 40%

    21 January, Monday

    Time Temperature Precipitation Wind Pressure Humidity
    00:00 +3°C° 0 mm 1 mps 731 mmHg 42%
    01:00 +2°C° 0 mm 1 mps 731 mmHg 42%
    02:00 +2°C° 0 mm 1 mps 731 mmHg 42%
    03:00 +2°C° 0 mm 1 mps 731 mmHg 42%
    04:00 +1°C° 0 mm 1 mps 731 mmHg 43%
    05:00 +1°C° 0 mm 1 mps 731 mmHg 43%
    06:00 +1°C° 0 mm 1 mps 731 mmHg 43%
    07:00 +2°C° 0 mm 1 mps 731 mmHg 42%
    08:00 +3°C° 0 mm 1 mps 731 mmHg 40%
    09:00 +3°C° 0 mm 1 mps 731 mmHg 38%
    10:00 +4°C° 0 mm 1 mps 730 mmHg 35%
    11:00 +5°C° 0 mm 1 mps 729 mmHg 32%
    12:00 +6°C° 0 mm 1 mps 729 mmHg 30%
    13:00 +7°C° 0 mm 1 mps 728 mmHg 29%
    14:00 +7°C° 0 mm 1 mps 728 mmHg 29%
    15:00 +7°C° 0 mm 1 mps 727 mmHg 29%
    16:00 +6°C° 0 mm 1 mps 727 mmHg 32%
    17:00 +4°C° 0 mm 0 mps 728 mmHg 36%
    18:00 +2°C° 0 mm 0 mps 728 mmHg 39%
    19:00 +3°C° 0 mm 1 mps 728 mmHg 41%
    20:00 +3°C° 0 mm 1 mps 728 mmHg 43%
    21:00 +3°C° 0 mm 1 mps 728 mmHg 44%
    22:00 +2°C° 0 mm 1 mps 728 mmHg 45%
    23:00 +1°C° 0 mm 2 mps 728 mmHg 46%

    22 January, Tuesday

    Time Temperature Precipitation Wind Pressure Humidity
    00:00 +1°C° 0 mm 2 mps 728 mmHg 47%
    01:00 +1°C° 0 mm 2 mps 728 mmHg 47%
    02:00 +1°C° 0 mm 2 mps 727 mmHg 47%
    03:00 +1°C° 0 mm 2 mps 727 mmHg 47%
    04:00 +1°C° 0 mm 2 mps 727 mmHg 47%
    05:00 +1°C° 0 mm 2 mps 727 mmHg 47%
    06:00 0°C° 0 mm 3 mps 727 mmHg 47%
    07:00 +1°C° 0 mm 3 mps 727 mmHg 45%
    08:00 +2°C° 0 mm 3 mps 728 mmHg 42%
    09:00 +3°C° 0 mm 4 mps 728 mmHg 40%
    10:00 +4°C° 0 mm 4 mps 728 mmHg 38%
    11:00 +6°C° 0 mm 4 mps 727 mmHg 37%
    12:00 +7°C° 0 mm 5 mps 727 mmHg 35%
    13:00 +8°C° 0 mm 5 mps 727 mmHg 37%
    14:00 +8°C° 0 mm 5 mps 727 mmHg 39%
    15:00 +8°C° 0 mm 5 mps 726 mmHg 40%
    16:00 +6°C° 0 mm 4 mps 727 mmHg 47%
    17:00 +5°C° 0 mm 3 mps 728 mmHg 53%
    18:00 +3°C° 0 mm 3 mps 728 mmHg 60%
    19:00 +4°C° 0 mm 2 mps 728 mmHg 63%
    20:00 +3°C° 0 mm 2 mps 728 mmHg 67%
    21:00 +2°C° 0 mm 2 mps 729 mmHg 70%
    22:00 +2°C° 0 mm 2 mps 729 mmHg 72%
    23:00 +3°C° 0 mm 1 mps 729 mmHg 73%

    23 January, Wednesday

    Time Temperature Precipitation Wind Pressure Humidity
    00:00 +3°C° 0 mm 1 mps 729 mmHg 75%
    01:00 +2°C° 0 mm 1 mps 729 mmHg 77%
    02:00 +2°C° 0 mm 1 mps 729 mmHg 78%
    03:00 +2°C° 0 mm 1 mps 729 mmHg 80%
    04:00 +1°C° 0 mm 1 mps 729 mmHg 81%
    05:00 +1°C° 0 mm 1 mps 729 mmHg 82%
    06:00 +1°C° 0 mm 1 mps 729 mmHg 83%
    07:00 +1°C° 0 mm 1 mps 729 mmHg 79%
    08:00 +2°C° 0 mm 1 mps 729 mmHg 75%
    09:00 +2°C° 0 mm 1 mps 730 mmHg 72%
    10:00 +3°C° 0 mm 1 mps 729 mmHg 67%
    11:00 +3°C° 0 mm 2 mps 729 mmHg 61%
    12:00 +4°C° 0 mm 2 mps 728 mmHg 56%
    13:00 +4°C° 0 mm 2 mps 728 mmHg 55%
    14:00 +4°C° 0 mm 2 mps 728 mmHg 54%
    15:00 +4°C° 0 mm 2 mps 727 mmHg 53%
    16:00 +4°C° 0 mm 1 mps 728 mmHg 58%
    17:00 +3°C° 0 mm 1 mps 728 mmHg 63%
    18:00 +1°C° 0 mm 0 mps 729 mmHg 68%
    19:00 +1°C° 0 mm 0 mps 729 mmHg 71%
    20:00 +1°C° 0 mm 0 mps 729 mmHg 74%
    21:00 0°C° 0 mm 0 mps 729 mmHg 77%
    22:00 +1°C° 0 mm 1 mps 729 mmHg 78%
    23:00 +1°C° 0 mm 1 mps 729 mmHg 80%
    Show more